Hourly Weather Polkowice

Today, 12 July, Sunday

Time Temperature Precipitation Wind Pressure Humidity
00:00 +13°C° 0 mm 2 mps 753 mmHg 71%
01:00 +12°C° 0 mm 2 mps 753 mmHg 77%
02:00 +12°C° 0 mm 2 mps 753 mmHg 80%
03:00 +10°C° 0 mm 2 mps 753 mmHg 83%
04:00 +9°C° 0 mm 2 mps 753 mmHg 87%
05:00 +12°C° 0 mm 2 mps 753 mmHg 81%
06:00 +14°C° 0 mm 2 mps 754 mmHg 75%
07:00 +15°C° 0 mm 2 mps 754 mmHg 70%
08:00 +17°C° 0.1 mm 3 mps 754 mmHg 64%
09:00 +18°C° 0.1 mm 3 mps 754 mmHg 58%
10:00 +19°C° 0.1 mm 4 mps 754 mmHg 52%
11:00 +20°C° 0.1 mm 4 mps 754 mmHg 48%
12:00 +21°C° 0.1 mm 4 mps 754 mmHg 45%
13:00 +22°C° 0.1 mm 4 mps 754 mmHg 41%
14:00 +21°C° 0 mm 4 mps 754 mmHg 43%
15:00 +21°C° 0 mm 3 mps 753 mmHg 45%
16:00 +20°C° 0 mm 3 mps 753 mmHg 47%
17:00 +19°C° 0 mm 3 mps 753 mmHg 50%
18:00 +19°C° 0 mm 2 mps 753 mmHg 53%
19:00 +18°C° 0 mm 2 mps 754 mmHg 56%
20:00 +17°C° 0 mm 2 mps 753 mmHg 59%
21:00 +15°C° 0 mm 2 mps 753 mmHg 62%
22:00 +14°C° 0 mm 2 mps 753 mmHg 64%
23:00 +13°C° 0 mm 2 mps 753 mmHg 69%

Tomorrow, 13 July, Monday

Time Temperature Precipitation Wind Pressure Humidity
00:00 +13°C° 0 mm 1 mps 754 mmHg 74%
01:00 +12°C° 0 mm 1 mps 754 mmHg 79%
02:00 +11°C° 0 mm 1 mps 754 mmHg 82%
03:00 +11°C° 0 mm 1 mps 753 mmHg 85%
04:00 +10°C° 0 mm 1 mps 753 mmHg 87%
05:00 +12°C° 0 mm 1 mps 753 mmHg 81%
06:00 +14°C° 0 mm 1 mps 753 mmHg 74%
07:00 +16°C° 0 mm 1 mps 753 mmHg 67%
08:00 +17°C° 0 mm 2 mps 753 mmHg 62%
09:00 +19°C° 0 mm 2 mps 753 mmHg 56%
10:00 +20°C° 0 mm 2 mps 753 mmHg 50%
11:00 +20°C° 0 mm 2 mps 753 mmHg 49%
12:00 +21°C° 0 mm 2 mps 752 mmHg 48%
13:00 +21°C° 0 mm 2 mps 752 mmHg 46%
14:00 +21°C° 0 mm 2 mps 752 mmHg 47%
15:00 +22°C° 0 mm 1 mps 751 mmHg 48%
16:00 +22°C° 0 mm 1 mps 751 mmHg 48%
17:00 +22°C° 0 mm 1 mps 751 mmHg 52%
18:00 +21°C° 0 mm 1 mps 750 mmHg 56%
19:00 +20°C° 0 mm 1 mps 750 mmHg 59%
20:00 +19°C° 0 mm 1 mps 750 mmHg 61%
21:00 +18°C° 0 mm 1 mps 750 mmHg 63%
22:00 +16°C° 0 mm 1 mps 750 mmHg 64%
23:00 +15°C° 0 mm 1 mps 750 mmHg 68%

Day after tomorrow, 14 July, Tuesday

Time Temperature Precipitation Wind Pressure Humidity
00:00 +14°C° 0 mm 1 mps 750 mmHg 71%
01:00 +14°C° 0 mm 1 mps 750 mmHg 75%
02:00 +13°C° 0 mm 1 mps 749 mmHg 76%
03:00 +13°C° 0 mm 1 mps 749 mmHg 78%
04:00 +12°C° 0 mm 1 mps 749 mmHg 80%
05:00 +14°C° 0 mm 1 mps 749 mmHg 74%
06:00 +16°C° 0 mm 1 mps 749 mmHg 68%
07:00 +19°C° 0 mm 1 mps 749 mmHg 63%
08:00 +20°C° 0 mm 1 mps 749 mmHg 57%
09:00 +21°C° 0 mm 2 mps 749 mmHg 52%
10:00 +23°C° 0 mm 2 mps 748 mmHg 47%
11:00 +24°C° 0 mm 2 mps 748 mmHg 46%
12:00 +24°C° 0 mm 2 mps 748 mmHg 45%
13:00 +24°C° 0 mm 2 mps 747 mmHg 44%
14:00 +25°C° 0 mm 1 mps 747 mmHg 44%
15:00 +25°C° 0 mm 1 mps 747 mmHg 44%
16:00 +25°C° 0 mm 1 mps 746 mmHg 45%
17:00 +24°C° 0 mm 1 mps 746 mmHg 50%
18:00 +23°C° 0 mm 2 mps 746 mmHg 55%
19:00 +21°C° 0 mm 2 mps 746 mmHg 59%
20:00 +20°C° 0 mm 2 mps 746 mmHg 64%
21:00 +18°C° 0 mm 2 mps 746 mmHg 69%
22:00 +17°C° 0 mm 2 mps 746 mmHg 73%
23:00 +16°C° 0.1 mm 2 mps 746 mmHg 75%

15 July, Wednesday

Time Temperature Precipitation Wind Pressure Humidity
00:00 +16°C° 0.1 mm 2 mps 745 mmHg 77%
01:00 +16°C° 0.1 mm 1 mps 745 mmHg 79%
02:00 +15°C° 0 mm 1 mps 745 mmHg 80%
03:00 +15°C° 0 mm 1 mps 745 mmHg 80%
04:00 +15°C° 0 mm 1 mps 744 mmHg 81%
05:00 +16°C° 0 mm 1 mps 744 mmHg 77%
06:00 +18°C° 0 mm 2 mps 744 mmHg 73%
07:00 +19°C° 0 mm 2 mps 744 mmHg 69%
08:00 +20°C° 0.1 mm 2 mps 744 mmHg 65%
09:00 +21°C° 0.1 mm 2 mps 744 mmHg 61%
10:00 +22°C° 0.1 mm 3 mps 744 mmHg 57%
11:00 +22°C° 0.7 mm 3 mps 744 mmHg 60%
12:00 +22°C° 0.7 mm 4 mps 743 mmHg 62%
13:00 +22°C° 0.7 mm 5 mps 743 mmHg 65%
14:00 +22°C° 0.4 mm 4 mps 743 mmHg 65%
15:00 +22°C° 0.4 mm 4 mps 743 mmHg 65%
16:00 +21°C° 0.4 mm 4 mps 743 mmHg 65%
17:00 +19°C° 0.6 mm 4 mps 743 mmHg 74%
18:00 +18°C° 0.6 mm 4 mps 743 mmHg 83%
19:00 +16°C° 0.6 mm 3 mps 743 mmHg 91%
20:00 +14°C° 0.3 mm 3 mps 743 mmHg 91%
21:00 +14°C° 0.3 mm 3 mps 743 mmHg 91%
22:00 +15°C° 0.3 mm 2 mps 743 mmHg 91%
23:00 +14°C° 0 mm 3 mps 743 mmHg 91%

16 July, Thursday

Time Temperature Precipitation Wind Pressure Humidity
00:00 +14°C° 0 mm 4 mps 743 mmHg 90%
01:00 +14°C° 0 mm 4 mps 743 mmHg 89%
02:00 +13°C° 0 mm 4 mps 743 mmHg 91%
03:00 +12°C° 0 mm 5 mps 743 mmHg 92%
04:00 +12°C° 0 mm 5 mps 743 mmHg 94%
05:00 +13°C° 0 mm 5 mps 744 mmHg 90%
06:00 +13°C° 0 mm 5 mps 744 mmHg 86%
07:00 +14°C° 0 mm 5 mps 744 mmHg 82%
08:00 +16°C° 0 mm 5 mps 744 mmHg 72%
09:00 +17°C° 0 mm 6 mps 744 mmHg 63%
10:00 +20°C° 0 mm 6 mps 744 mmHg 53%
11:00 +20°C° 0.1 mm 6 mps 744 mmHg 51%
12:00 +21°C° 0.1 mm 6 mps 744 mmHg 50%
13:00 +22°C° 0.1 mm 6 mps 744 mmHg 48%
14:00 +21°C° 0.3 mm 6 mps 743 mmHg 51%
15:00 +21°C° 0.3 mm 7 mps 743 mmHg 55%
16:00 +20°C° 0.3 mm 7 mps 743 mmHg 58%
17:00 +19°C° 0.3 mm 6 mps 743 mmHg 64%
18:00 +17°C° 0.3 mm 5 mps 743 mmHg 69%
19:00 +17°C° 0.3 mm 4 mps 742 mmHg 75%
20:00 +16°C° 0.2 mm 5 mps 742 mmHg 78%
21:00 +15°C° 0.2 mm 6 mps 743 mmHg 80%
22:00 +15°C° 0.2 mm 7 mps 743 mmHg 83%
23:00 +15°C° 0.2 mm 7 mps 743 mmHg 85%

17 July, Friday

Time Temperature Precipitation Wind Pressure Humidity
00:00 +15°C° 0.2 mm 7 mps 743 mmHg 87%
01:00 +15°C° 0.2 mm 7 mps 743 mmHg 88%
02:00 +15°C° 0 mm 6 mps 743 mmHg 89%
03:00 +14°C° 0 mm 6 mps 744 mmHg 89%
04:00 +14°C° 0 mm 6 mps 744 mmHg 89%
05:00 +14°C° 0 mm 5 mps 744 mmHg 86%
06:00 +15°C° 0 mm 5 mps 745 mmHg 83%
07:00 +15°C° 0 mm 5 mps 745 mmHg 80%
08:00 +17°C° 0 mm 6 mps 745 mmHg 73%
09:00 +20°C° 0 mm 6 mps 746 mmHg 67%
10:00 +21°C° 0 mm 6 mps 746 mmHg 60%
11:00 +22°C° 0.1 mm 6 mps 746 mmHg 58%
12:00 +23°C° 0.1 mm 6 mps 746 mmHg 56%
13:00 +23°C° 0.1 mm 6 mps 746 mmHg 55%
14:00 +23°C° 0.3 mm 6 mps 746 mmHg 57%
15:00 +23°C° 0.3 mm 6 mps 746 mmHg 59%
16:00 +23°C° 0.3 mm 6 mps 746 mmHg 61%
17:00 +22°C° 0.7 mm 5 mps 746 mmHg 67%
18:00 +20°C° 0.7 mm 4 mps 746 mmHg 73%
19:00 +19°C° 0.7 mm 4 mps 746 mmHg 78%
20:00 +18°C° 0.6 mm 3 mps 746 mmHg 82%
21:00 +18°C° 0.6 mm 3 mps 747 mmHg 86%
22:00 +17°C° 0.6 mm 2 mps 747 mmHg 89%
23:00 +16°C° 0.1 mm 2 mps 747 mmHg 91%
Show more